Date String (YYYY-MM-DD hh:mm:ss) UTC,Instrument flags,Ambient pressure (hPa),Sample flow (lpm),Bypass flow (lpm),Sample temperature (°C),Ambient temperature (°C),ASC tube jacket temperature (°C),LED temperature (°C),Box temperature (°C),Sample RH (%),Span deviation,Mass concentration (μg/m³),Mass concentration (μg/m³),Mass concentration (μg/m³)
DateTimeUTC,F1_M11,P_M11,Q1_M11,Q2_M11,T1_M11,T2_M11,T3_M11,T4_M11,T5_M11,U1_M11,ZSPAN_M11,X0_M11,X2_M11,X1_M11
2021-09-15 20:00:00,,0823.8,5.02,0.00,29.4,28.3,00.0,38.3,31.3,22.6,0001.7,0028.29,0009.63,0007.96
2021-09-15 20:01:00,,0823.8,4.99,0.00,29.3,26.7,00.0,38.3,30.9,22.5,0001.8,0027.89,0009.59,0007.94
2021-09-15 20:02:00,,0823.8,4.99,0.00,29.2,25.8,00.0,38.3,30.6,23.3,0002.0,0027.90,0009.56,0007.92
2021-09-15 20:03:00,,0823.8,5.01,0.00,29.1,26.1,00.0,38.3,30.7,24.2,0002.2,0028.00,0009.46,0007.90
2021-09-15 20:04:00,,0823.7,5.00,0.00,29.1,26.5,00.0,38.2,30.7,25.7,0002.2,0028.87,0009.49,0007.89
2021-09-15 20:05:00,,0823.7,5.00,0.00,29.1,27.0,00.0,38.2,30.9,26.1,0002.0,0029.83,0009.55,0007.93
2021-09-15 20:06:00,,0823.7,4.99,0.00,29.1,27.4,00.0,38.2,31.0,25.8,0002.0,0029.95,0009.64,0007.95
2021-09-15 20:07:00,,0823.7,5.01,0.00,29.2,27.8,00.0,38.2,31.1,25.2,0001.8,0030.70,0009.71,0007.98
2021-09-15 20:08:00,,0823.8,5.00,0.00,29.3,28.1,00.0,38.2,31.2,24.5,0002.0,0030.20,0009.74,0008.02
2021-09-15 20:09:00,,0823.8,5.00,0.00,29.3,28.3,00.0,38.2,31.3,24.0,0002.0,0032.23,0009.78,0008.02
2021-09-15 20:10:00,,0823.7,4.99,0.00,29.4,28.5,00.0,38.3,31.3,24.0,0002.0,0031.66,0009.81,0008.02
2021-09-15 20:11:00,,0823.7,5.01,0.00,29.4,27.9,00.0,38.3,31.2,23.9,0001.7,0031.09,0009.90,0008.04
2021-09-15 20:12:00,,0823.7,4.99,0.00,29.3,26.2,00.0,38.3,30.7,24.8,0001.6,0030.85,0010.00,0008.08
2021-09-15 20:13:00,,0823.7,5.00,0.00,29.1,25.9,00.0,38.3,30.5,25.3,0001.5,0031.71,0010.03,0008.09
2021-09-15 20:14:00,,0823.7,4.99,0.00,29.1,26.3,00.0,38.3,30.7,25.3,0001.3,0031.01,0010.07,0008.10
2021-09-15 20:15:00,,0823.7,5.00,0.00,29.1,26.7,00.0,38.2,30.8,25.5,0001.4,0030.77,0010.05,0008.09
2021-09-15 20:16:00,,0823.7,5.00,0.00,29.1,27.2,00.0,38.2,30.9,25.0,0001.9,0028.63,0009.98,0008.05
2021-09-15 20:17:00,,0823.7,4.99,0.00,29.2,27.6,00.0,38.2,31.0,24.8,0001.9,0027.17,0009.90,0008.03
2021-09-15 20:18:00,,0823.7,5.00,0.00,29.2,27.9,00.0,38.2,31.1,24.4,0001.8,0026.27,0009.88,0008.03
2021-09-15 20:19:00,,0823.7,4.99,0.00,29.3,28.2,00.0,38.2,31.2,25.3,0001.7,0028.18,0009.93,0008.03
2021-09-15 20:20:00,,0823.7,5.00,0.00,29.4,28.4,00.0,38.2,31.3,25.3,0001.8,0026.63,0010.00,0008.05
2021-09-15 20:21:00,,0823.7,5.01,0.00,29.4,28.0,00.0,38.3,31.2,24.6,0002.1,0025.74,0009.96,0008.05
2021-09-15 20:22:00,,0823.6,5.00,0.00,29.3,26.3,00.0,38.3,30.7,24.3,0002.5,0025.14,0009.97,0008.04
2021-09-15 20:23:00,,0823.7,5.00,0.00,29.1,25.7,00.0,38.3,30.5,24.3,0002.8,0025.59,0009.90,0008.02
2021-09-15 20:24:00,,0823.7,5.00,0.00,29.1,26.1,00.0,38.2,30.6,23.7,0002.6,0024.72,0009.88,0008.01
2021-09-15 20:25:00,,0823.7,5.00,0.00,29.1,26.6,00.0,38.2,30.8,23.3,0002.7,0024.28,0009.90,0007.99
2021-09-15 20:26:00,,0823.7,5.00,0.00,29.1,27.0,00.0,38.2,30.9,22.9,0002.7,0024.27,0009.93,0007.96
2021-09-15 20:27:00,,0823.6,4.99,0.00,29.1,27.5,00.0,38.2,31.0,22.9,0002.7,0024.18,0009.86,0007.92
2021-09-15 20:28:00,,0823.6,5.01,0.00,29.2,27.8,00.0,38.2,31.1,23.7,0002.7,0023.91,0009.82,0007.89
2021-09-15 20:29:00,,0823.6,4.99,0.00,29.3,28.1,00.0,38.2,31.2,22.9,0002.7,0023.91,0009.73,0007.84
2021-09-15 20:30:00,,0823.6,5.00,0.00,29.3,28.4,00.0,38.2,31.3,22.6,0002.6,0022.39,0009.61,0007.79
2021-09-15 20:31:00,,0823.5,5.01,0.00,29.4,28.6,00.0,38.2,31.3,23.3,0002.3,0021.97,0009.57,0007.76
2021-09-15 20:32:00,,0823.4,4.98,0.00,29.4,27.5,00.0,38.3,31.1,24.9,0002.1,0021.57,0009.55,0007.75
2021-09-15 20:33:00,,0823.5,5.00,0.00,29.2,26.0,00.0,38.3,30.6,25.3,0002.0,0021.89,0009.44,0007.76
2021-09-15 20:34:00,,0823.5,5.00,0.00,29.1,26.0,00.0,38.2,30.6,25.1,0002.3,0022.79,0009.53,0007.78
2021-09-15 20:35:00,,0823.4,5.00,0.00,29.1,26.4,00.0,38.2,30.7,25.2,0002.6,0022.28,0009.54,0007.79
2021-09-15 20:36:00,,0823.4,5.00,0.00,29.1,26.8,00.0,38.2,30.8,24.2,0002.4,0022.99,0009.59,0007.81
2021-09-15 20:37:00,,0823.4,4.99,0.00,29.1,27.3,00.0,38.2,30.9,23.1,0001.8,0023.76,0009.55,0007.81
2021-09-15 20:38:00,,0823.4,5.01,0.00,29.2,27.7,00.0,38.2,31.0,23.0,0001.5,0024.09,0009.55,0007.81
2021-09-15 20:39:00,,0823.4,4.99,0.00,29.2,28.0,00.0,38.2,31.1,22.7,0001.5,0024.30,0009.60,0007.82
2021-09-15 20:40:00,,0823.4,5.00,0.00,29.3,28.3,00.0,38.2,31.3,22.8,0001.6,0023.58,0009.63,0007.83
2021-09-15 20:41:00,,0823.4,5.00,0.00,29.4,28.5,00.0,38.2,31.3,22.8,0001.2,0024.32,0009.65,0007.84
2021-09-15 20:42:00,,0823.3,5.01,0.00,29.4,27.8,00.0,38.3,31.1,23.5,0001.3,0025.43,0009.60,0007.84
2021-09-15 20:43:00,,0823.3,4.99,0.00,29.3,26.1,00.0,38.3,30.7,23.4,0001.6,0024.83,0009.54,0007.83
2021-09-15 20:44:00,,0823.4,5.01,0.00,29.1,25.9,00.0,38.2,30.6,23.3,0001.6,0024.42,0009.51,0007.82
2021-09-15 20:45:00,,0823.4,4.99,0.00,29.1,26.3,00.0,38.2,30.7,22.9,0001.2,0022.83,0009.41,0007.80
2021-09-15 20:46:00,,0823.4,5.01,0.00,29.1,26.8,00.0,38.2,30.8,22.5,0000.8,0023.31,0009.31,0007.76
2021-09-15 20:47:00,,0823.4,5.00,0.00,29.1,27.2,00.0,38.2,30.9,22.6,0001.3,0023.31,0009.18,0007.71
2021-09-15 20:48:00,,0823.4,5.01,0.00,29.2,27.6,00.0,38.2,31.0,22.4,0001.9,0022.27,0009.15,0007.70
2021-09-15 20:49:00,,0823.4,4.99,0.00,29.2,28.0,00.0,38.2,31.1,22.1,0001.9,0021.96,0009.13,0007.70
2021-09-15 20:50:00,,0823.4,5.00,0.00,29.3,28.2,00.0,38.2,31.2,22.4,0002.2,0021.67,0009.06,0007.69
2021-09-15 20:51:00,,0823.3,5.00,0.00,29.4,28.5,00.0,38.2,31.3,22.6,0002.7,0022.14,0009.04,0007.66
2021-09-15 20:52:00,,0823.3,5.01,0.00,29.4,27.9,00.0,38.3,31.2,22.4,0003.1,0021.36,0009.04,0007.64
2021-09-15 20:53:00,,0823.3,5.01,0.00,29.3,26.3,00.0,38.3,30.7,22.7,0003.2,0020.79,0009.00,0007.63
2021-09-15 20:54:00,,0823.2,4.99,0.00,29.2,25.9,00.0,38.2,30.6,22.5,0002.8,0021.46,0009.05,0007.62
2021-09-15 20:55:00,,0823.1,5.00,0.00,29.1,26.3,00.0,38.2,30.7,22.3,0002.8,0021.68,0009.05,0007.60
2021-09-15 20:56:00,,0823.1,5.01,0.00,29.1,26.7,00.0,38.2,30.8,22.7,0003.1,0021.66,0009.01,0007.58
2021-09-15 20:57:00,,0823.1,5.01,0.00,29.1,27.2,00.0,38.2,30.9,22.3,0003.5,0021.12,0009.03,0007.57
2021-09-15 20:58:00,,0823.1,4.99,0.00,29.2,27.6,00.0,38.2,31.0,22.0,0003.4,0020.89,0009.11,0007.60
2021-09-15 20:59:00,,0823.1,5.01,0.00,29.2,28.0,00.0,38.2,31.1,22.2,0003.5,0021.11,0009.11,0007.58
